CAPE
0 0 0 0 0 0 0 0 0 0 0 0 0 0 0 0 0 0 0 0 0 0
0 0 0 0 0 0 0 0 0 0 0 0 0 0 0 0 0 0 0 0 0 0
0 0 0 0 0 0 0 0 0 0 0 0 0 0 0 0 0 0 0 0 0 0
0 0 0 0 0 0 0 0 0 0 0 0 0 0 0 0 0 0 0 0 0 0
0 0 0 0 0 0 0 0 0 0 0 0 0 0 0 0 0 0 0 0 0 0
0 0 0 0 0 0 0 0 0 0 0 0 0 0 0 0 0 0 0 0 0 0
0 0 0 0 0 0 0 0 0 0 0 0 0 0 0 0 0 0 0 0 0 0
0 0 0 0 0 0 0 0 0 0 0 0 0 0 0 0 0 0 0 0 0 0
0 0 0 0 0 0 0 0 0 0 0 0 0 0 0 0 0 0 0 0 0 0
0 0 0 0 0 0 0 0 0 0 0 0 0 0 0 0 0 0 0 0 0 0
0 0 0 0 0 0 0 0 0 0 0 0 0 0 0 0 0 0 0 0 0 0
0 0 0 0 0 0 0 0 0 0 0 0 0 0 0 0 0 0 0 0 0 0
0 0 0 0 0 0 0 0 0 0 0 0 0 0 0 0 0 0 0 0 0 0
0 0 0 0 0 0 0 0 0 0 0 0 0 0 0 0 0 0 0 0 0 0
CIN
-0 -0 -0 -0 -0 -0 -0 -0 -0 -0 -0 -0 -0 -0 -0 -0 -0 -0 -0 -0 -0 -0
-0 -0 -0 -0 -0 -0 -0 -0 -0 -0 -0 -0 -0 -0 -0 -0 -0 -0 -0 -0 -0 -0
-0 -0 -0 -0 -0 -0 -0 -0 -0 -0 -0 -0 -0 -0 -0 -0 -0 -0 -0 -0 -0 -0
-0 -0 -0 -0 -0 -0 -0 -0 -0 -0 -0 -0 -0 -0 -0 -0 -0 -0 -0 -0 -0 -0
-0 -0 -0 -0 -0 -0 -0 -0 -0 -0 -0 -0 -0 -0 -0 -0 -0 -0 -0 -0 -0 -0
-0 -0 -0 -0 -0 -0 -0 -0 -0 -0 -0 -0 -0 -0 -0 -0 -0 -0 -0 -0 -0 -0
-0 -0 -0 -0 -0 -0 -0 -0 -0 -0 -0 -0 -0 -0 -0 -0 -0 -0 -0 -0 -0 -0
-0 -0 -0 -0 -0 -0 -0 -0 -0 -0 -0 -0 -0 -0 -0 -0 -0 -0 -0 -0 -0 -0
-0 -0 -0 -0 -0 -0 -0 -0 -0 -0 -0 -0 -0 -0 -0 -0 -0 -0 -0 -0 -0 -0
-0 -0 -0 -0 -0 -0 -0 -0 -0 -0 -0 -0 -0 -0 -0 -0 -0 -0 -0 -0 -0 -0
-0 -0 -0 -0 -0 -0 -0 -0 -0 -0 -0 -0 -0 -0 -0 -0 -0 -0 -0 -0 -0 -0
-0 -0 -0 -0 -0 -0 -0 -0 -0 -0 -0 -0 -0 -0 -0 -0 -0 -0 -0 -0 -0 -0
-0 -0 -0 -0 -0 -0 -0 -0 -0 -0 -0 -0 -0 -0 -0 -0 -0 -0 -0 -0 -0 -0
-0 -0 -0 -0 -0 -0 -0 -0 -0 -0 -0 -0 -0 -0 -0 -0 -0 -0 -0 -0 -0 -0
Wind_Speed
25 23 21 19 15 12 10 7 3 3 4 5 6 7 9 9 9 10 10 11 12 14
20 20 20 17 12 12 8 5 1 2 4 5 7 8 9 9 10 11 12 13 14 15
18 17 16 12 13 12 9 5 2 2 4 6 7 7 8 10 12 13 14 15 16 17
14 14 14 14 13 12 8 6 4 3 4 4 6 7 8 10 12 13 15 16 17 18
16 15 15 14 13 11 11 8 7 5 5 5 6 7 8 10 12 13 15 17 18 20
18 17 17 16 15 13 12 11 10 9 7 7 7 8 9 10 12 14 15 17 18 21
19 19 19 18 17 15 14 14 13 12 10 10 10 10 10 11 13 14 16 17 19 20
23 23 22 20 19 18 17 16 16 14 13 13 12 11 11 12 13 15 17 18 19 20
27 25 23 23 22 21 20 19 18 18 17 15 15 13 12 12 14 16 18 19 20 21
27 26 25 25 24 23 22 22 21 21 20 19 17 15 14 13 15 17 18 19 20 22
29 27 27 26 26 26 25 25 24 24 23 22 20 17 16 15 16 18 19 19 20 22
31 30 30 29 28 28 28 28 27 27 26 25 23 20 18 16 17 19 20 20 21 21
34 34 33 31 31 30 30 30 30 29 28 27 26 22 20 18 19 22 22 21 21 21
35 35 35 35 33 32 32 32 31 31 30 29 27 24 22 20 21 22 22 23 23 22
Wind_Direction
187 187 188 187 184 183 179 170 108 67 48 47 42 37 32 32 30 28 22 16 13 9
191 192 193 193 194 194 191 186 157 24 21 25 25 26 26 24 22 19 15 12 9 6
199 200 201 207 207 204 205 215 250 333 356 4 10 17 19 14 12 11 9 7 5 3
221 217 220 217 220 217 226 237 246 287 326 344 355 2 4 3 3 2 1 2 360 358
241 238 232 229 232 233 230 243 250 275 295 316 332 343 348 351 354 354 353 355 355 354
241 240 235 238 243 239 241 248 257 268 273 290 308 322 331 339 343 345 347 349 349 351
242 240 244 251 246 241 247 248 250 256 261 279 296 307 318 327 334 338 341 344 345 347
256 258 259 255 251 252 252 251 252 253 260 273 283 294 305 316 326 332 336 339 342 344
260 260 257 258 257 258 255 254 255 252 257 264 276 284 292 306 318 325 330 333 337 341
261 258 257 259 260 256 254 258 254 255 257 261 270 278 284 294 310 319 325 330 334 336
262 260 261 259 256 259 261 257 257 257 257 262 267 272 278 288 302 312 320 326 330 332
265 264 264 262 261 263 263 262 259 260 258 258 264 267 273 282 295 305 313 321 326 329
270 268 267 265 265 266 265 263 264 262 260 258 262 263 267 275 289 299 307 316 321 325
274 272 271 271 269 269 267 269 266 264 264 260 259 262 264 269 282 293 302 309 315 321